Liberal, KS

11:30 AM CST on December 14, 2017 (GMT -0600)
Liberal Municipal

Weather History for KLBL - June, 2013

Change the Weather History Date:

Monday, June 24, 2013

  Actual Average Record
Temperature  
Mean Temperature 84 °F -  
Max Temperature 95 °F 91 °F 108 °F (1953)
Min Temperature 73 °F 63 °F 48 °F (1940)
Cooling Degree Days 19    
Growing Degree Days 34 (Base 50)    
Moisture  
Dew Point 59 °F    
Average Humidity 45    
Maximum Humidity 57    
Minimum Humidity 28    
Precipitation  
Precipitation 0.00 in - - ()
Sea Level Pressure  
Sea Level Pressure 29.83 in    
Wind  
Wind Speed 18 mph (South)    
Max Wind Speed 32 mph    
Max Gust Speed 38 mph    
Visibility 10 miles    
Events Thunderstorm    
Averages and records for this station are not official NWS values.
T = Trace of Precipitation, MM = Missing Value Source: NWS Daily Summary

Daily Weather History Graph

Daily Weather History Graph

Search for Another Location

Airport or City:

Trip Planner

Search our weather history database for the weather conditions in past years. The results will help you decide how hot, cold, wet, or windy it might be!

Date:

Astronomy

Jun. 24, 2013 Rise Set
Actual Time 6:25 AM CDT 9:07 PM CDT
Civil Twilight 5:54 AM CDT 9:38 PM CDT
Nautical Twilight 5:15 AM CDT 10:16 PM CDT
Astronomical Twilight 4:32 AM CDT 11:00 PM CDT
Moon 10:14 PM CDT (6/24) 7:52 AM CDT (6/24)
Length of Visible Light 15h 43m
Length of Day
14h 42m
Full, 98% of the Moon is Illuminated
Jun 24
Full
Jun 29
Last Quarter
Jul 8
New
Jul 15
First Quarter
Jul 22
Full

Hourly Weather History & Observations

Time (CDT) Temp. Heat Index Dew Point Humidity Pressure Visibility Wind Dir Wind Speed Gust Speed Precip Events Conditions
12:15 AM 82.4 °F 82.9 °F 60.8 °F 48% 29.85 in 10.0 mi SSE 18.4 mph - N/A   Clear
12:35 AM 80.6 °F 81.1 °F 59.0 °F 48% 29.85 in 10.0 mi SSE 16.1 mph 21.9 mph N/A   Clear
12:55 AM 80.6 °F 80.8 °F 57.2 °F 45% 29.85 in 10.0 mi SSE 15.0 mph - N/A   Clear
1:15 AM 78.8 °F - 55.4 °F 44% 29.85 in 10.0 mi SSE 12.7 mph - N/A   Clear
1:35 AM 78.8 °F - 55.4 °F 44% 29.85 in 10.0 mi SSE 13.8 mph - N/A   Clear
1:55 AM 78.8 °F - 55.4 °F 44% 29.84 in 10.0 mi SSE 12.7 mph - N/A   Clear
2:15 AM 78.8 °F - 55.4 °F 44% 29.84 in 10.0 mi SSE 12.7 mph - N/A   Clear
2:35 AM 78.8 °F - 55.4 °F 44% 29.85 in 10.0 mi South 13.8 mph - N/A   Clear
2:55 AM 78.8 °F - 55.4 °F 44% 29.85 in 10.0 mi South 15.0 mph - N/A   Clear
3:15 AM 78.8 °F - 55.4 °F 44% 29.85 in 10.0 mi South 17.3 mph - N/A   Clear
3:35 AM 77.0 °F - 55.4 °F 47% 29.85 in 10.0 mi South 17.3 mph - N/A   Clear
3:55 AM 77.0 °F - 55.4 °F 47% 29.85 in 10.0 mi South 15.0 mph - N/A   Clear
4:15 AM 75.2 °F - 55.4 °F 50% 29.85 in 10.0 mi South 15.0 mph - N/A   Clear
4:35 AM 75.2 °F - 55.4 °F 50% 29.85 in 10.0 mi South 18.4 mph - N/A   Clear
4:55 AM 75.2 °F - 55.4 °F 50% 29.85 in 10.0 mi South 17.3 mph 24.2 mph N/A   Clear
5:15 AM 75.2 °F - 55.4 °F 50% 29.85 in 10.0 mi South 18.4 mph - N/A   Clear
5:35 AM 75.2 °F - 55.4 °F 50% 29.85 in 10.0 mi South 16.1 mph 21.9 mph N/A   Clear
5:55 AM 73.4 °F - 55.4 °F 53% 29.85 in 10.0 mi South 15.0 mph - N/A   Clear
6:15 AM 73.4 °F - 55.4 °F 53% 29.85 in 10.0 mi South 15.0 mph - N/A   Clear
6:35 AM 73.4 °F - 55.4 °F 53% 29.85 in 10.0 mi South 13.8 mph - N/A   Clear
6:55 AM 73.4 °F - 55.4 °F 53% 29.86 in 10.0 mi South 13.8 mph - N/A   Clear
7:15 AM 73.4 °F - 57.2 °F 57% 29.87 in 10.0 mi South 12.7 mph - N/A   Clear
7:35 AM 73.4 °F - 57.2 °F 57% 29.87 in 10.0 mi South 16.1 mph - N/A   Clear
7:55 AM 75.2 °F - 59.0 °F 57% 29.88 in 10.0 mi South 18.4 mph 24.2 mph N/A   Clear
8:15 AM 77.0 °F - 60.8 °F 57% 29.88 in 10.0 mi South 23.0 mph 26.5 mph N/A   Clear
8:35 AM 78.8 °F - 60.8 °F 54% 29.89 in 10.0 mi SSW 21.9 mph 29.9 mph N/A   Clear
8:55 AM 78.8 °F - 60.8 °F 54% 29.89 in 10.0 mi SSW 23.0 mph 29.9 mph N/A   Clear
9:15 AM 78.8 °F - 60.8 °F 54% 29.88 in 10.0 mi South 25.3 mph 32.2 mph N/A   Clear
9:35 AM 78.8 °F - 60.8 °F 54% 29.89 in 10.0 mi SSW 24.2 mph 31.1 mph N/A   Clear
9:55 AM 78.8 °F - 60.8 °F 54% 29.90 in 10.0 mi SSW 28.8 mph 34.5 mph N/A   Clear
10:15 AM 80.6 °F 81.5 °F 60.8 °F 51% 29.89 in 10.0 mi SSW 26.5 mph 32.2 mph N/A   Clear
10:35 AM 78.8 °F - 59.0 °F 51% 29.89 in 10.0 mi SSW 25.3 mph 33.4 mph N/A   Clear
10:55 AM 78.8 °F - 59.0 °F 51% 29.89 in 10.0 mi SSW 21.9 mph 29.9 mph N/A   Clear
11:15 AM 80.6 °F 81.5 °F 60.8 °F 51% 29.89 in 10.0 mi SSW 27.6 mph 32.2 mph N/A   Clear
11:35 AM 82.4 °F 83.4 °F 62.6 °F 51% 29.89 in 10.0 mi SSW 24.2 mph 31.1 mph N/A   Clear
11:55 AM 82.4 °F 82.9 °F 60.8 °F 48% 29.90 in 10.0 mi SSW 19.6 mph 29.9 mph N/A   Clear
12:15 PM 86.0 °F 86.6 °F 62.6 °F 45% 29.89 in 10.0 mi SW 25.3 mph 31.1 mph N/A   Clear
12:35 PM 87.8 °F 87.6 °F 60.8 °F 40% 29.88 in 10.0 mi SSW 25.3 mph 29.9 mph N/A   Clear
12:55 PM 89.6 °F 90.1 °F 62.6 °F 40% 29.88 in 10.0 mi SW 18.4 mph 31.1 mph N/A   Clear
1:15 PM 89.6 °F 90.1 °F 62.6 °F 40% 29.87 in 10.0 mi SSW 18.4 mph 27.6 mph N/A   Clear
1:35 PM 91.4 °F 91.4 °F 60.8 °F 36% 29.86 in 10.0 mi South 18.4 mph 25.3 mph N/A   Clear
1:55 PM 89.6 °F 89.5 °F 60.8 °F 38% 29.86 in 10.0 mi South 19.6 mph - N/A   Clear
2:15 PM 89.6 °F 89.5 °F 60.8 °F 38% 29.85 in 10.0 mi South 18.4 mph 21.9 mph N/A   Clear
2:35 PM 91.4 °F 92.1 °F 62.6 °F 38% 29.83 in 10.0 mi South 18.4 mph 24.2 mph N/A   Clear
2:55 PM 93.2 °F 93.3 °F 60.8 °F 34% 29.83 in 10.0 mi South 20.7 mph 26.5 mph N/A   Clear
3:15 PM 95.0 °F 96.0 °F 62.6 °F 34% 29.82 in 10.0 mi SSW 19.6 mph - N/A   Clear
3:35 PM 95.0 °F 94.4 °F 59.0 °F 30% 29.82 in 10.0 mi SSW 19.6 mph 23.0 mph N/A   Clear
3:55 PM 93.2 °F 91.9 °F 57.2 °F 30% 29.83 in 10.0 mi SSW 16.1 mph 25.3 mph N/A   Clear
4:15 PM 93.2 °F 91.9 °F 57.2 °F 30% 29.82 in 8.0 mi SSW 16.1 mph - N/A   Clear
4:35 PM 93.2 °F 91.9 °F 57.2 °F 30% 29.82 in 10.0 mi SSW 13.8 mph - N/A   Clear
4:55 PM 93.2 °F 91.3 °F 55.4 °F 28% 29.80 in 10.0 mi SSW 9.2 mph - N/A   Clear
5:15 PM 93.2 °F 91.9 °F 57.2 °F 30% 29.80 in 10.0 mi SSW 8.1 mph - N/A   Clear
5:35 PM 91.4 °F 89.9 °F 57.2 °F 31% 29.79 in 10.0 mi SSW 10.4 mph - N/A   Clear
5:55 PM 93.2 °F 92.6 °F 59.0 °F 32% 29.77 in 10.0 mi South 15.0 mph - N/A   Partly Cloudy
6:15 PM 93.2 °F 94.1 °F 62.6 °F 36% 29.76 in 10.0 mi South 25.3 mph 29.9 mph N/A Thunderstorm Partly Cloudy
6:35 PM 93.2 °F 93.3 °F 60.8 °F 34% 29.74 in 10.0 mi South 21.9 mph 29.9 mph N/A   Clear
6:55 PM 93.2 °F 94.1 °F 62.6 °F 36% 29.75 in 10.0 mi South 26.5 mph 34.5 mph N/A   Clear
7:15 PM 93.2 °F 94.1 °F 62.6 °F 36% 29.74 in 10.0 mi South 28.8 mph 38.0 mph N/A   Clear
7:35 PM 91.4 °F 92.1 °F 62.6 °F 38% 29.75 in 10.0 mi South 32.2 mph 36.8 mph N/A   Clear
7:55 PM 91.4 °F 92.1 °F 62.6 °F 38% 29.76 in 10.0 mi South 25.3 mph 31.1 mph N/A   Clear
8:15 PM 89.6 °F 90.1 °F 62.6 °F 40% 29.76 in 10.0 mi South 23.0 mph 35.7 mph N/A   Clear
8:35 PM 87.8 °F 88.5 °F 62.6 °F 43% 29.76 in 10.0 mi South 27.6 mph 33.4 mph N/A   Clear
8:55 PM 87.8 °F 88.5 °F 62.6 °F 43% 29.77 in 10.0 mi South 26.5 mph 32.2 mph N/A   Clear
9:15 PM 86.0 °F 86.6 °F 62.6 °F 45% 29.77 in 10.0 mi South 21.9 mph 33.4 mph N/A   Clear
9:35 PM 84.2 °F 85.0 °F 62.6 °F 48% 29.77 in 10.0 mi South 24.2 mph 32.2 mph N/A   Clear
9:55 PM 84.2 °F 85.0 °F 62.6 °F 48% 29.77 in 10.0 mi South 21.9 mph 28.8 mph N/A   Clear
10:15 PM 84.2 °F 85.0 °F 62.6 °F 48% 29.78 in 10.0 mi South 23.0 mph 29.9 mph N/A   Clear
10:35 PM 84.2 °F 85.0 °F 62.6 °F 48% 29.79 in 10.0 mi South 23.0 mph 32.2 mph N/A   Clear
10:55 PM 82.4 °F 83.4 °F 62.6 °F 51% 29.80 in 10.0 mi South 26.5 mph 29.9 mph N/A   Clear
11:15 PM 82.4 °F 82.9 °F 60.8 °F 48% 29.81 in 10.0 mi South 26.5 mph 32.2 mph N/A   Clear
11:35 PM 82.4 °F 82.9 °F 60.8 °F 48% 29.81 in 10.0 mi South 25.3 mph 32.2 mph N/A   Clear
11:55 PM 82.4 °F 82.9 °F 60.8 °F 48% 29.81 in 10.0 mi South 25.3 mph 33.4 mph N/A   Clear